Location: Brachbach
(49.1847°N, 9.7240°E)
Time: 09:35:44
(UTC+00:00)

FENGYUN 3A - Pass Details

Date: 14 August 2024
Orbit: 821 x 834 km, 98.6° (Epoch: 16 September)

Event Time Altitude Azimuth Distance (km) Brightness Sun altitude
Rises 03:34:52 0° 3° (N) 3,396 7.4 -6.3°
Reaches altitude 10° 03:38:01 10° 345° (NNW) 2,456 6.3 -5.8°
Maximum altitude 03:41:24 17° 306° (NW) 1,991 5.4 -5.3°
Drops below altitude 10° 03:44:47 10° 267° (W) 2,443 5.6 -4.8°
Enters shadow 03:46:28 - 255° (WSW) 2,911 5.9 -4.6°
